QPF
0.00 0.00 0.00 0.01 0.01 0.01 0.01 0.02 0.02 0.01 0.01 0.01 0.01 0.01 0.02 0.02 0.01 0.01 0.01 0.02 0.02 0.02 0.03 0.05 0.06 0.07 0.08 0.09 0.13 0.18 0.14 0.10 0.08 0.05 0.05 0.04 0.04 0.05 0.06 0.06 0.07 0.08 0.07 0.06
0.00 0.00 0.00 0.01 0.01 0.01 0.01 0.01 0.02 0.01 0.01 0.01 0.01 0.01 0.01 0.01 0.01 0.01 0.01 0.02 0.02 0.02 0.02 0.02 0.03 0.08 0.09 0.09 0.11 0.14 0.15 0.12 0.08 0.06 0.04 0.04 0.05 0.05 0.04 0.04 0.05 0.06 0.07 0.06
0.00 0.00 0.00 0.00 0.01 0.01 0.02 0.02 0.02 0.01 0.01 0.01 0.01 0.01 0.02 0.02 0.02 0.02 0.02 0.03 0.03 0.03 0.02 0.02 0.02 0.04 0.06 0.09 0.09 0.10 0.10 0.09 0.08 0.06 0.05 0.05 0.04 0.04 0.04 0.04 0.04 0.05 0.07 0.07
0.00 0.00 0.00 0.01 0.01 0.02 0.02 0.02 0.02 0.01 0.01 0.01 0.01 0.02 0.03 0.03 0.04 0.03 0.02 0.02 0.02 0.02 0.02 0.02 0.02 0.02 0.04 0.05 0.07 0.07 0.07 0.06 0.07 0.06 0.05 0.04 0.03 0.03 0.03 0.04 0.05 0.06 0.09 0.07
0.00 0.01 0.01 0.01 0.01 0.01 0.02 0.02 0.02 0.02 0.02 0.02 0.03 0.03 0.04 0.05 0.05 0.03 0.02 0.01 0.01 0.01 0.01 0.01 0.01 0.01 0.02 0.03 0.04 0.06 0.06 0.05 0.04 0.03 0.04 0.05 0.03 0.02 0.02 0.03 0.04 0.06 0.08 0.07
0.01 0.02 0.02 0.02 0.01 0.01 0.01 0.02 0.01 0.01 0.01 0.02 0.03 0.04 0.04 0.05 0.05 0.03 0.01 0.01 0.01 0.00 0.00 0.01 0.01 0.01 0.02 0.03 0.05 0.06 0.07 0.05 0.04 0.03 0.03 0.03 0.03 0.02 0.02 0.03 0.03 0.04 0.04 0.04
0.01 0.02 0.02 0.01 0.01 0.01 0.02 0.01 0.01 0.02 0.02 0.03 0.05 0.05 0.03 0.02 0.02 0.01 0.01 0.01 0.01 0.00 0.00 0.01 0.01 0.01 0.02 0.03 0.04 0.06 0.08 0.07 0.07 0.06 0.04 0.03 0.05 0.04 0.03 0.02 0.02 0.03 0.03 0.03
0.01 0.01 0.02 0.01 0.01 0.02 0.02 0.01 0.02 0.02 0.04 0.05 0.06 0.04 0.02 0.01 0.01 0.01 0.01 0.01 0.01 0.01 0.00 0.01 0.02 0.02 0.02 0.04 0.06 0.08 0.10 0.09 0.08 0.07 0.05 0.04 0.04 0.05 0.04 0.01 0.01 0.02 0.03 0.02
0.02 0.02 0.01 0.01 0.02 0.03 0.03 0.02 0.02 0.03 0.03 0.04 0.04 0.03 0.02 0.01 0.01 0.02 0.02 0.01 0.01 0.01 0.01 0.02 0.03 0.02 0.03 0.04 0.05 0.09 0.11 0.09 0.07 0.06 0.05 0.04 0.03 0.03 0.03 0.01 0.01 0.01 0.02 0.02
0.01 0.01 0.01 0.02 0.02 0.02 0.02 0.02 0.03 0.03 0.03 0.03 0.03 0.02 0.02 0.01 0.01 0.01 0.02 0.01 0.01 0.01 0.01 0.03 0.03 0.02 0.02 0.02 0.02 0.05 0.07 0.06 0.05 0.04 0.04 0.03 0.03 0.03 0.02 0.01 0.01 0.01 0.01 0.02
0.01 0.01 0.01 0.02 0.02 0.02 0.03 0.03 0.03 0.03 0.04 0.04 0.03 0.02 0.02 0.02 0.02 0.01 0.01 0.01 0.01 0.01 0.02 0.03 0.03 0.02 0.02 0.02 0.03 0.04 0.04 0.03 0.03 0.03 0.03 0.02 0.02 0.02 0.01 0.01 0.01 0.01 0.01 0.01
0.02 0.02 0.02 0.01 0.01 0.02 0.04 0.04 0.03 0.03 0.03 0.04 0.03 0.03 0.03 0.02 0.01 0.01 0.01 0.01 0.00 0.01 0.03 0.04 0.03 0.03 0.03 0.03 0.04 0.03 0.03 0.03 0.03 0.03 0.02 0.01 0.01 0.01 0.01 0.01 0.01 0.01 0.01 0.01
0.02 0.01 0.01 0.01 0.02 0.03 0.05 0.05 0.04 0.03 0.02 0.03 0.03 0.03 0.02 0.02 0.01 0.01 0.01 0.01 0.01 0.01 0.03 0.05 0.04 0.03 0.03 0.03 0.03 0.03 0.03 0.03 0.03 0.02 0.02 0.02 0.01 0.01 0.01 0.01 0.01 0.01 0.01 0.01
0.01 0.01 0.01 0.02 0.03 0.04 0.05 0.06 0.05 0.03 0.03 0.02 0.02 0.02 0.02 0.01 0.01 0.01 0.00 0.01 0.01 0.02 0.04 0.05 0.04 0.03 0.02 0.03 0.03 0.03 0.03 0.04 0.04 0.03 0.03 0.02 0.01 0.01 0.01 0.01 0.01 0.01 0.01 0.01
0.01 0.01 0.01 0.02 0.02 0.03 0.04 0.05 0.04 0.04 0.03 0.02 0.01 0.01 0.01 0.01 0.01 0.01 0.01 0.01 0.02 0.03 0.04 0.05 0.03 0.03 0.03 0.03 0.03 0.03 0.03 0.04 0.04 0.04 0.03 0.02 0.01 0.01 0.01 0.01 0.01 0.01 0.01 0.01
0.01 0.01 0.01 0.01 0.01 0.02 0.03 0.03 0.02 0.02 0.02 0.02 0.01 0.01 0.01 0.01 0.01 0.01 0.01 0.01 0.03 0.04 0.04 0.02 0.01 0.02 0.02 0.02 0.03 0.03 0.03 0.04 0.03 0.03 0.02 0.01 0.01 0.01 0.01 0.01 0.01 0.01 0.01 0.01
0.01 0.01 0.01 0.01 0.01 0.02 0.03 0.03 0.01 0.01 0.01 0.01 0.02 0.01 0.01 0.01 0.01 0.01 0.01 0.02 0.03 0.02 0.02 0.01 0.01 0.01 0.02 0.02 0.03 0.03 0.03 0.04 0.03 0.02 0.02 0.01 0.01 0.01 0.01 0.01 0.01 0.01 0.01 0.01
0.01 0.01 0.01 0.00 0.01 0.02 0.03 0.02 0.01 0.01 0.01 0.02 0.02 0.02 0.01 0.01 0.01 0.01 0.02 0.02 0.01 0.01 0.01 0.01 0.01 0.01 0.01 0.02 0.03 0.03 0.03 0.04 0.03 0.02 0.01 0.01 0.00 0.00 0.01 0.01 0.01 0.01 0.01 0.01
0.01 0.01 0.01 0.01 0.01 0.02 0.03 0.02 0.01 0.01 0.01 0.02 0.02 0.02 0.01 0.01 0.01 0.01 0.01 0.01 0.01 0.01 0.01 0.01 0.01 0.01 0.01 0.01 0.04 0.05 0.04 0.04 0.03 0.01 0.01 0.00 0.00 0.00 0.00 0.00 0.01 0.01 0.01 0.02
0.01 0.01 0.01 0.01 0.02 0.01 0.03 0.02 0.02 0.01 0.01 0.01 0.01 0.01 0.01 0.01 0.01 0.01 0.00 0.00 0.00 0.00 0.01 0.01 0.01 0.01 0.01 0.01 0.03 0.05 0.05 0.04 0.02 0.01 0.01 0.01 0.00 0.00 0.00 0.01 0.01 0.01 0.01 0.02
0.02 0.01 0.01 0.02 0.02 0.01 0.02 0.02 0.01 0.01 0.01 0.01 0.01 0.01 0.01 0.01 0.01 0.01 0.00 0.00 0.01 0.01 0.01 0.01 0.01 0.02 0.01 0.02 0.02 0.04 0.04 0.03 0.02 0.01 0.01 0.00 0.00 0.00 0.00 0.01 0.01 0.01 0.01 0.02
0.01 0.02 0.02 0.02 0.02 0.01 0.01 0.01 0.01 0.01 0.01 0.01 0.01 0.00 0.00 0.00 0.00 0.00 0.00 0.00 0.01 0.01 0.01 0.01 0.01 0.02 0.02 0.02 0.01 0.02 0.03 0.03 0.01 0.01 0.01 0.00 0.00 0.00 0.00 0.00 0.00 0.01 0.01 0.01
0.02 0.03 0.02 0.01 0.01 0.00 0.00 0.01 0.01 0.01 0.01 0.01 0.01 0.00 0.00 0.00 0.00 0.00 0.00 0.00 0.01 0.01 0.01 0.02 0.02 0.02 0.02 0.02 0.01 0.01 0.02 0.02 0.02 0.01 0.01 0.00 0.00 0.00 0.00 0.00 0.00 0.01 0.01 0.01
0.02 0.03 0.01 0.01 0.00 0.00 0.00 0.01 0.01 0.01 0.01 0.01 0.01 0.01 0.01 0.01 0.01 0.01 0.00 0.01 0.01 0.01 0.01 0.01 0.01 0.02 0.02 0.01 0.01 0.01 0.01 0.01 0.01 0.01 0.01 0.01 0.00 0.00 0.00 0.00 0.00 0.01 0.01 0.01
0.03 0.02 0.01 0.00 0.01 0.01 0.01 0.01 0.01 0.01 0.01 0.01 0.01 0.01 0.01 0.00 0.00 0.00 0.00 0.00 0.00 0.00 0.00 0.00 0.01 0.01 0.02 0.01 0.01 0.01 0.00 0.00 0.00 0.00 0.00 0.00 0.00 0.00 0.00 0.00 0.00 0.00 0.01 0.00
0.03 0.01 0.01 0.01 0.01 0.02 0.02 0.02 0.01 0.01 0.01 0.00 0.00 0.00 0.00 0.00 0.00 0.00 0.00 0.00 0.01 0.01 0.01 0.00 0.01 0.01 0.01 0.01 0.01 0.01 0.00 0.00 0.00 0.00 0.00 0.00 0.00 0.00 0.00 0.00 0.00 0.00 0.00 0.00
0.02 0.01 0.02 0.02 0.02 0.02 0.02 0.02 0.01 0.01 0.01 0.01 0.00 0.00 0.00 0.00 0.00 0.00 0.00 0.00 0.00 0.01 0.01 0.00 0.00 0.01 0.01 0.01 0.01 0.00 0.00 0.00 0.00 0.00 0.00 0.00 0.00 0.00 0.00 0.00 0.00 0.00 0.00 0.00
MSLP
1019.91 1019.31 1018.76 1018.28 1017.87 1017.47 1017.04 1016.52 1015.85 1015.00 1013.95 1012.70 1011.27 1009.73 1008.13 1006.56 1005.07 1003.75 1002.62 1001.74 1001.14 1000.80 1000.73 1000.91 1001.30 1001.85 1002.51 1003.23 1003.93 1004.56 1005.08 1005.45 1005.67 1005.75 1005.70 1005.57 1005.40 1005.24 1005.12 1005.07 1005.11 1005.25 1005.48 1005.80
1020.71 1020.11 1019.54 1018.98 1018.46 1017.93 1017.37 1016.73 1015.97 1015.06 1014.00 1012.77 1011.41 1009.94 1008.44 1006.94 1005.53 1004.24 1003.14 1002.27 1001.65 1001.29 1001.19 1001.34 1001.69 1002.22 1002.85 1003.54 1004.21 1004.82 1005.32 1005.68 1005.89 1005.95 1005.90 1005.76 1005.58 1005.41 1005.28 1005.22 1005.25 1005.37 1005.61 1005.94
1021.54 1020.92 1020.28 1019.64 1018.99 1018.31 1017.61 1016.83 1015.97 1015.01 1013.93 1012.73 1011.44 1010.09 1008.71 1007.35 1006.06 1004.89 1003.88 1003.07 1002.48 1002.13 1002.00 1002.10 1002.39 1002.82 1003.36 1003.95 1004.52 1005.04 1005.46 1005.75 1005.92 1005.96 1005.90 1005.77 1005.61 1005.46 1005.35 1005.32 1005.37 1005.52 1005.78 1006.14
1022.37 1021.68 1020.96 1020.20 1019.41 1018.59 1017.73 1016.83 1015.87 1014.84 1013.75 1012.60 1011.40 1010.17 1008.95 1007.77 1006.66 1005.66 1004.79 1004.08 1003.55 1003.21 1003.06 1003.08 1003.25 1003.55 1003.93 1004.34 1004.75 1005.12 1005.41 1005.61 1005.71 1005.73 1005.67 1005.57 1005.46 1005.37 1005.33 1005.36 1005.47 1005.68 1005.99 1006.40
1023.11 1022.33 1021.48 1020.59 1019.66 1018.70 1017.71 1016.69 1015.64 1014.57 1013.48 1012.38 1011.29 1010.21 1009.17 1008.19 1007.28 1006.46 1005.75 1005.16 1004.70 1004.38 1004.18 1004.11 1004.14 1004.25 1004.42 1004.62 1004.82 1005.00 1005.15 1005.24 1005.28 1005.28 1005.25 1005.21 1005.18 1005.19 1005.25 1005.38 1005.58 1005.87 1006.25 1006.72
1023.65 1022.73 1021.76 1020.73 1019.67 1018.59 1017.49 1016.38 1015.28 1014.19 1013.14 1012.11 1011.13 1010.21 1009.35 1008.57 1007.86 1007.22 1006.67 1006.19 1005.79 1005.47 1005.21 1005.02 1004.88 1004.79 1004.74 1004.71 1004.70 1004.69 1004.69 1004.69 1004.69 1004.69 1004.72 1004.77 1004.85 1004.99 1005.17 1005.42 1005.74 1006.12 1006.57 1007.10
1023.87 1022.81 1021.69 1020.55 1019.38 1018.21 1017.04 1015.90 1014.79 1013.72 1012.72 1011.79 1010.94 1010.18 1009.49 1008.89 1008.36 1007.88 1007.46 1007.07 1006.70 1006.36 1006.03 1005.71 1005.40 1005.11 1004.85 1004.60 1004.40 1004.23 1004.11 1004.05 1004.04 1004.08 1004.19 1004.35 1004.57 1004.85 1005.18 1005.55 1005.98 1006.46 1006.98 1007.55
1023.71 1022.51 1021.27 1020.03 1018.79 1017.57 1016.39 1015.26 1014.19 1013.19 1012.28 1011.47 1010.75 1010.13 1009.61 1009.16 1008.76 1008.41 1008.08 1007.74 1007.39 1007.01 1006.59 1006.15 1005.69 1005.22 1004.77 1004.36 1004.00 1003.73 1003.54 1003.45 1003.46 1003.57 1003.78 1004.08 1004.44 1004.86 1005.32 1005.82 1006.35 1006.91 1007.48 1008.08
1023.19 1021.86 1020.53 1019.23 1017.96 1016.74 1015.59 1014.52 1013.53 1012.64 1011.85 1011.17 1010.59 1010.11 1009.72 1009.39 1009.10 1008.83 1008.55 1008.23 1007.86 1007.43 1006.93 1006.38 1005.79 1005.19 1004.60 1004.08 1003.63 1003.29 1003.08 1003.01 1003.08 1003.28 1003.61 1004.02 1004.52 1005.07 1005.65 1006.25 1006.85 1007.46 1008.07 1008.68
1022.40 1020.98 1019.59 1018.25 1016.99 1015.82 1014.74 1013.76 1012.89 1012.13 1011.48 1010.93 1010.49 1010.14 1009.85 1009.62 1009.40 1009.17 1008.91 1008.59 1008.19 1007.70 1007.14 1006.50 1005.82 1005.13 1004.48 1003.89 1003.41 1003.06 1002.88 1002.85 1003.00 1003.29 1003.72 1004.24 1004.85 1005.49 1006.15 1006.82 1007.47 1008.11 1008.73 1009.33
1021.48 1020.01 1018.59 1017.26 1016.04 1014.93 1013.94 1013.08 1012.34 1011.72 1011.21 1010.80 1010.48 1010.24 1010.04 1009.87 1009.70 1009.50 1009.24 1008.90 1008.47 1007.94 1007.32 1006.64 1005.92 1005.19 1004.51 1003.92 1003.45 1003.14 1003.00 1003.04 1003.25 1003.63 1004.14 1004.74 1005.41 1006.11 1006.82 1007.51 1008.18 1008.82 1009.42 1010.00
1020.59 1019.11 1017.70 1016.40 1015.23 1014.19 1013.30 1012.55 1011.93 1011.44 1011.06 1010.77 1010.57 1010.41 1010.29 1010.17 1010.03 1009.84 1009.58 1009.23 1008.78 1008.23 1007.60 1006.91 1006.18 1005.47 1004.81 1004.25 1003.83 1003.56 1003.48 1003.58 1003.86 1004.29 1004.84 1005.48 1006.17 1006.89 1007.59 1008.28 1008.93 1009.54 1010.11 1010.65
1019.87 1018.40 1017.02 1015.76 1014.63 1013.66 1012.85 1012.19 1011.68 1011.29 1011.02 1010.83 1010.72 1010.64 1010.58 1010.51 1010.40 1010.23 1009.97 1009.63 1009.18 1008.64 1008.02 1007.36 1006.67 1006.00 1005.39 1004.89 1004.53 1004.33 1004.30 1004.44 1004.75 1005.20 1005.76 1006.39 1007.07 1007.76 1008.43 1009.08 1009.68 1010.25 1010.77 1011.27
1019.35 1017.93 1016.58 1015.35 1014.27 1013.34 1012.59 1011.99 1011.55 1011.24 1011.05 1010.94 1010.90 1010.89 1010.89 1010.86 1010.79 1010.64 1010.42 1010.10 1009.68 1009.18 1008.61 1007.99 1007.37 1006.77 1006.23 1005.80 1005.50 1005.36 1005.37 1005.54 1005.85 1006.29 1006.82 1007.41 1008.04 1008.67 1009.29 1009.87 1010.42 1010.93 1011.40 1011.84
1019.03 1017.65 1016.35 1015.15 1014.08 1013.18 1012.46 1011.90 1011.50 1011.24 1011.10 1011.06 1011.08 1011.13 1011.18 1011.20 1011.17 1011.08 1010.90 1010.62 1010.26 1009.81 1009.31 1008.77 1008.22 1007.71 1007.25 1006.89 1006.65 1006.55 1006.59 1006.76 1007.06 1007.46 1007.94 1008.47 1009.03 1009.59 1010.13 1010.65 1011.13 1011.58 1012.00 1012.38
1018.82 1017.50 1016.22 1015.04 1013.99 1013.10 1012.39 1011.84 1011.47 1011.24 1011.15 1011.15 1011.22 1011.33 1011.44 1011.52 1011.54 1011.50 1011.38 1011.16 1010.86 1010.49 1010.06 1009.61 1009.15 1008.72 1008.34 1008.05 1007.86 1007.79 1007.84 1008.01 1008.27 1008.63 1009.05 1009.51 1009.99 1010.47 1010.94 1011.39 1011.81 1012.20 1012.56 1012.90
1018.64 1017.36 1016.11 1014.95 1013.91 1013.02 1012.31 1011.77 1011.41 1011.21 1011.15 1011.20 1011.33 1011.49 1011.66 1011.80 1011.88 1011.90 1011.84 1011.69 1011.46 1011.16 1010.81 1010.43 1010.05 1009.70 1009.40 1009.17 1009.03 1008.98 1009.04 1009.19 1009.42 1009.73 1010.09 1010.48 1010.89 1011.30 1011.70 1012.08 1012.45 1012.78 1013.10 1013.38
1018.39 1017.15 1015.93 1014.78 1013.75 1012.88 1012.17 1011.65 1011.31 1011.15 1011.13 1011.23 1011.41 1011.63 1011.85 1012.05 1012.19 1012.27 1012.26 1012.17 1012.00 1011.76 1011.48 1011.18 1010.87 1010.59 1010.35 1010.17 1010.07 1010.05 1010.11 1010.25 1010.45 1010.71 1011.02 1011.35 1011.70 1012.05 1012.39 1012.72 1013.04 1013.33 1013.59 1013.83
1018.05 1016.83 1015.64 1014.52 1013.51 1012.66 1011.98 1011.49 1011.19 1011.07 1011.10 1011.25 1011.49 1011.76 1012.04 1012.29 1012.49 1012.61 1012.64 1012.60 1012.47 1012.29 1012.06 1011.81 1011.56 1011.34 1011.15 1011.02 1010.96 1010.96 1011.02 1011.15 1011.34 1011.56 1011.83 1012.11 1012.41 1012.71 1013.00 1013.29 1013.55 1013.80 1014.02 1014.21
1017.62 1016.43 1015.27 1014.19 1013.21 1012.40 1011.76 1011.32 1011.08 1011.01 1011.09 1011.30 1011.59 1011.92 1012.24 1012.54 1012.76 1012.92 1012.98 1012.96 1012.87 1012.72 1012.53 1012.33 1012.13 1011.95 1011.81 1011.72 1011.69 1011.71 1011.79 1011.92 1012.08 1012.29 1012.51 1012.75 1013.01 1013.26 1013.51 1013.75 1013.97 1014.17 1014.35 1014.49
1017.18 1016.02 1014.90 1013.85 1012.93 1012.16 1011.58 1011.20 1011.01 1010.99 1011.14 1011.39 1011.73 1012.10 1012.45 1012.77 1013.02 1013.19 1013.27 1013.27 1013.20 1013.07 1012.91 1012.75 1012.59 1012.45 1012.36 1012.31 1012.31 1012.35 1012.44 1012.57 1012.72 1012.90 1013.09 1013.29 1013.50 1013.70 1013.90 1014.09 1014.27 1014.43 1014.56 1014.66
1016.80 1015.67 1014.59 1013.59 1012.72 1012.01 1011.48 1011.15 1011.01 1011.05 1011.23 1011.52 1011.89 1012.28 1012.65 1012.98 1013.24 1013.42 1013.51 1013.52 1013.46 1013.36 1013.23 1013.10 1012.98 1012.89 1012.84 1012.83 1012.86 1012.93 1013.02 1013.15 1013.28 1013.43 1013.58 1013.74 1013.89 1014.04 1014.18 1014.31 1014.44 1014.54 1014.63 1014.68
1016.55 1015.47 1014.43 1013.48 1012.65 1011.99 1011.50 1011.21 1011.10 1011.16 1011.36 1011.67 1012.04 1012.43 1012.81 1013.14 1013.40 1013.58 1013.67 1013.70 1013.66 1013.59 1013.50 1013.41 1013.34 1013.29 1013.28 1013.31 1013.37 1013.46 1013.56 1013.68 1013.79 1013.90 1014.00 1014.09 1014.18 1014.26 1014.33 1014.40 1014.46 1014.51 1014.55 1014.56
1016.47 1015.43 1014.44 1013.53 1012.74 1012.11 1011.64 1011.36 1011.26 1011.32 1011.51 1011.80 1012.16 1012.54 1012.90 1013.21 1013.47 1013.65 1013.76 1013.81 1013.81 1013.77 1013.73 1013.69 1013.67 1013.68 1013.72 1013.78 1013.87 1013.97 1014.07 1014.16 1014.24 1014.30 1014.34 1014.36 1014.37 1014.37 1014.37 1014.36 1014.35 1014.34 1014.33 1014.30
1016.54 1015.55 1014.60 1013.73 1012.96 1012.34 1011.88 1011.59 1011.46 1011.49 1011.65 1011.90 1012.22 1012.56 1012.90 1013.20 1013.45 1013.64 1013.77 1013.86 1013.90 1013.92 1013.93 1013.95 1013.99 1014.05 1014.13 1014.23 1014.33 1014.43 1014.51 1014.58 1014.61 1014.61 1014.58 1014.52 1014.45 1014.36 1014.28 1014.19 1014.11 1014.05 1013.98 1013.92
1016.70 1015.77 1014.86 1014.02 1013.27 1012.64 1012.16 1011.84 1011.67 1011.64 1011.75 1011.94 1012.21 1012.51 1012.82 1013.10 1013.35 1013.56 1013.72 1013.84 1013.94 1014.01 1014.09 1014.17 1014.26 1014.36 1014.48 1014.59 1014.70 1014.79 1014.85 1014.87 1014.85 1014.78 1014.68 1014.54 1014.39 1014.22 1014.05 1013.90 1013.76 1013.64 1013.54 1013.45
1016.87 1015.99 1015.13 1014.31 1013.57 1012.94 1012.43 1012.07 1011.84 1011.76 1011.80 1011.94 1012.15 1012.41 1012.68 1012.95 1013.21 1013.43 1013.63 1013.79 1013.93 1014.06 1014.19 1014.32 1014.45 1014.58 1014.71 1014.83 1014.93 1014.99 1015.01 1014.98 1014.90 1014.77 1014.60 1014.40 1014.17 1013.94 1013.71 1013.49 1013.30 1013.14 1013.01 1012.91
Thickness
5652 5657 5656 5653 5655 5655 5647 5643 5636 5644 5646 5652 5656 5657 5658 5659 5657 5656 5655 5653 5651 5649 5646 5643 5641 5639 5637 5634 5632 5630 5626 5624 5621 5619 5616 5613 5611 5608 5606 5605 5603 5599 5597 5595
5645 5653 5650 5647 5651 5652 5650 5647 5642 5642 5643 5651 5653 5653 5653 5652 5651 5650 5649 5647 5645 5643 5641 5638 5636 5633 5631 5630 5627 5625 5622 5619 5617 5614 5612 5609 5607 5604 5602 5600 5597 5595 5593 5590
5627 5637 5638 5633 5644 5645 5643 5642 5639 5633 5637 5644 5645 5646 5645 5646 5646 5645 5644 5643 5641 5639 5637 5634 5631 5629 5626 5625 5623 5620 5618 5615 5612 5610 5607 5605 5603 5601 5598 5596 5593 5591 5589 5587
5610 5619 5615 5633 5648 5646 5640 5638 5636 5633 5634 5636 5637 5639 5641 5641 5640 5640 5640 5638 5637 5635 5633 5630 5628 5626 5624 5621 5619 5617 5614 5612 5608 5605 5603 5601 5599 5597 5595 5593 5590 5588 5586 5584
5599 5602 5612 5631 5637 5634 5629 5628 5631 5628 5630 5630 5632 5634 5636 5637 5636 5635 5634 5633 5632 5631 5629 5627 5624 5623 5620 5617 5615 5613 5611 5608 5606 5603 5601 5598 5596 5594 5591 5590 5588 5586 5583 5581
5596 5596 5601 5616 5630 5634 5628 5617 5625 5623 5621 5622 5623 5619 5627 5632 5631 5630 5629 5629 5628 5627 5625 5622 5620 5618 5616 5613 5611 5609 5608 5606 5604 5601 5599 5596 5594 5591 5589 5587 5585 5584 5582 5580
5591 5589 5602 5614 5622 5624 5605 5603 5617 5617 5616 5615 5615 5616 5622 5625 5625 5625 5625 5625 5624 5623 5621 5619 5617 5614 5612 5611 5609 5608 5606 5604 5602 5600 5597 5595 5592 5589 5587 5585 5583 5581 5580 5579
5583 5584 5594 5612 5610 5602 5600 5607 5609 5612 5612 5612 5614 5617 5619 5619 5620 5620 5621 5621 5620 5618 5617 5615 5614 5612 5610 5610 5610 5608 5605 5603 5601 5598 5596 5594 5591 5588 5586 5584 5581 5580 5578 5577
5582 5589 5601 5604 5602 5603 5603 5603 5607 5608 5610 5610 5610 5613 5615 5615 5615 5616 5617 5617 5616 5614 5613 5612 5611 5610 5609 5609 5609 5607 5605 5602 5599 5597 5594 5592 5590 5587 5585 5582 5580 5579 5577 5575
5581 5593 5599 5601 5602 5603 5604 5604 5607 5608 5608 5608 5608 5610 5611 5611 5611 5611 5612 5613 5612 5611 5610 5609 5609 5609 5609 5609 5608 5606 5603 5600 5598 5595 5593 5591 5589 5586 5584 5583 5581 5579 5577 5576
5576 5588 5594 5600 5600 5601 5603 5604 5606 5608 5608 5607 5607 5608 5608 5608 5608 5609 5609 5609 5609 5608 5608 5608 5608 5608 5608 5609 5607 5604 5602 5599 5597 5595 5593 5590 5588 5586 5584 5583 5581 5579 5578 5576
5574 5585 5583 5592 5599 5599 5599 5601 5603 5605 5606 5606 5605 5605 5606 5606 5607 5607 5607 5608 5607 5607 5606 5607 5607 5607 5608 5607 5606 5604 5601 5599 5596 5594 5592 5589 5587 5585 5585 5584 5583 5580 5578 5576
5580 5587 5587 5592 5596 5598 5598 5600 5602 5603 5603 5604 5605 5604 5605 5605 5606 5606 5606 5606 5606 5606 5606 5606 5606 5607 5608 5607 5606 5604 5601 5599 5596 5594 5592 5590 5588 5586 5585 5584 5584 5582 5580 5578
5582 5583 5585 5591 5593 5596 5597 5599 5601 5602 5603 5603 5604 5605 5605 5605 5606 5606 5606 5606 5607 5606 5606 5606 5607 5607 5608 5607 5605 5604 5601 5599 5597 5594 5592 5590 5588 5586 5585 5583 5582 5582 5581 5579
5584 5584 5585 5589 5592 5595 5597 5598 5599 5601 5602 5604 5604 5604 5605 5605 5606 5607 5607 5607 5607 5606 5607 5608 5608 5608 5608 5607 5606 5604 5602 5600 5597 5595 5593 5591 5589 5587 5585 5583 5581 5579 5579 5579
5582 5584 5585 5587 5590 5593 5594 5597 5598 5600 5601 5602 5603 5605 5606 5606 5606 5607 5607 5607 5606 5607 5608 5609 5608 5609 5608 5607 5605 5603 5602 5601 5598 5596 5594 5592 5590 5587 5585 5583 5581 5580 5579 5577
5575 5579 5582 5585 5589 5591 5593 5596 5599 5600 5602 5603 5604 5605 5606 5606 5606 5607 5607 5607 5608 5608 5609 5609 5610 5610 5609 5608 5606 5604 5603 5601 5598 5596 5594 5592 5590 5588 5586 5584 5582 5580 5578 5577
5578 5581 5584 5586 5589 5591 5594 5597 5599 5601 5602 5604 5605 5605 5605 5605 5606 5607 5607 5607 5607 5607 5609 5609 5610 5610 5609 5608 5606 5605 5603 5601 5598 5596 5594 5592 5590 5588 5586 5584 5582 5580 5578 5576
5580 5583 5586 5589 5591 5593 5595 5597 5599 5601 5603 5604 5604 5605 5606 5606 5607 5607 5607 5606 5606 5607 5609 5610 5609 5609 5609 5608 5606 5605 5603 5601 5599 5597 5595 5592 5590 5588 5586 5584 5582 5579 5577 5574
5579 5583 5587 5589 5592 5594 5596 5598 5600 5602 5603 5605 5605 5605 5605 5606 5607 5607 5606 5606 5607 5609 5610 5610 5609 5609 5609 5608 5606 5605 5603 5601 5599 5597 5595 5593 5591 5588 5585 5583 5580 5578 5575 5572
5577 5581 5585 5588 5591 5595 5597 5599 5601 5602 5604 5605 5605 5605 5606 5607 5607 5607 5606 5607 5609 5610 5610 5610 5609 5609 5608 5608 5606 5605 5603 5601 5600 5597 5595 5593 5590 5587 5585 5582 5579 5576 5574 5570
5575 5579 5584 5588 5591 5594 5597 5600 5602 5604 5605 5606 5606 5606 5606 5606 5607 5607 5608 5609 5611 5610 5610 5610 5610 5610 5609 5608 5607 5605 5604 5602 5600 5598 5595 5592 5590 5587 5584 5581 5578 5575 5572 5569
5573 5578 5583 5587 5591 5594 5598 5601 5603 5605 5606 5607 5607 5607 5608 5609 5609 5609 5610 5611 5611 5611 5611 5611 5611 5610 5608 5608 5607 5606 5605 5603 5600 5598 5595 5593 5590 5587 5584 5581 5578 5575 5571 5568
5573 5578 5583 5588 5591 5594 5598 5602 5604 5606 5608 5609 5610 5611 5611 5611 5611 5613 5614 5614 5613 5612 5613 5612 5611 5610 5609 5609 5608 5607 5606 5604 5601 5599 5596 5593 5590 5587 5583 5580 5577 5574 5570 5566
5572 5577 5583 5587 5591 5596 5600 5602 5604 5606 5608 5609 5611 5613 5614 5614 5614 5615 5615 5615 5614 5613 5613 5613 5612 5611 5611 5610 5609 5608 5607 5605 5602 5599 5596 5593 5590 5587 5583 5580 5576 5572 5569 5565
5572 5578 5584 5589 5594 5597 5600 5603 5604 5606 5608 5610 5612 5614 5615 5615 5616 5616 5616 5616 5615 5614 5614 5614 5613 5612 5612 5611 5610 5609 5607 5605 5602 5600 5597 5594 5590 5586 5583 5579 5575 5571 5567 5563
5573 5579 5585 5590 5595 5599 5602 5604 5606 5608 5610 5612 5614 5615 5615 5616 5616 5616 5617 5616 5616 5615 5615 5614 5614 5614 5613 5612 5611 5610 5608 5606 5603 5600 5597 5593 5589 5586 5582 5578 5574 5570 5565 5561